DELAWARE BAY NM Southeast of Cape May, NJ (44009)

Conditions for Sunday

Daily
Weekly
Monthly
Marine Data Graph

Marine & Boating Location Search

Enter a coastal zip code for marine weather.

General Information

Location: 38.461 North -74.703 West
Buoy Type: 3-meter discus buoy
Buoy Hull: 3DV10
Payload: AMPS payload
Owned by: NDBC
Windspeed: Measured by obtained from anemometer
Sea Surface: Measured by Intake
Note: Right whales are active off Delaware Bay from November to April.  Speed restrictions of 10 knots apply to vessels 65 feet or greater in specific areas along the mid-Atlantic coast.  To learn more about right whales and rules protecting them, go to: http://www.nmfs.noaa.gov/pr/shipstrike 

Weather and Wave Data

Time Temp Humidity Wind Dominant Wave Wind Wave Wave Swell Pressure
  Air
(°F)
Water
(°F)
  Dir Speed
(kts)
Speed
(mph)
Period
(sec)
Height
(ft)
Range
(ft)
Period
(sec)
Height
(ft)
Range
(ft)
Period
(sec)
Height
(ft)
Range
(ft)
Atmo.
(in)
Tend.
(in)
20:50 75 73 99 - 11.7 13.4 14 2.95 exactly 3.0 4 1.64 0.82 - 2.46 14 1.64 0.82 - 2.46 30.11 -
21:50 74 73 100 - 11.7 13.4 9 2.62 exactly 2.6 5 1.64 0.82 - 2.46 9 1.64 0.82 - 2.46 30.13 +0.03
22:50 73 73 100 - 11.7 13.4 4 2.62 exactly 2.6 4 1.64 0.82 - 2.46 7 1.64 0.82 - 2.46 30.14 +0.04
23:50 72 72 98 - 11.7 13.4 14 2.62 exactly 2.6 5 1.64 0.82 - 2.46 14 1.64 0.82 - 2.46 30.15 +0.04
00:50 71 71 100 - 13.6 15.7 14 2.62 exactly 2.6 5 1.64 0.82 - 2.46 14 1.64 0.82 - 2.46 30.14 +0.01
01:50 71 70 99 - 9.7 11.2 14 2.62 exactly 2.6 5 1.64 0.82 - 2.46 14 1.64 0.82 - 2.46 30.13 -0.01
02:50 70 69 100 - 9.7 11.2 14 2.62 exactly 2.6 5 1.64 0.82 - 2.46 14 1.64 0.82 - 2.46 30.12 -0.03
03:50 71 69 99 - 9.7 11.2 14 2.62 exactly 2.6 4 1.64 0.82 - 2.46 14 1.64 0.82 - 2.46 30.12 -0.02
04:50 71 69 98 - 9.7 11.2 8 2.62 exactly 2.6 4 1.64 0.82 - 2.46 8 1.64 0.82 - 2.46 30.11 -0.02
05:50 71 70 99 - 9.7 11.2 14 2.95 exactly 3.0 5 1.64 0.82 - 2.46 14 1.64 0.82 - 2.46 30.11 -
06:50 71 71 100 - 9.7 11.2 14 2.62 exactly 2.6 4 1.64 0.82 - 2.46 14 1.64 0.82 - 2.46 30.12 -
07:50 72 72 98 - 9.7 11.2 14 2.95 exactly 3.0 5 1.64 0.82 - 2.46 14 1.64 0.82 - 2.46 30.12 +0.01
08:50 72 73 100 - 11.7 13.4 14 2.95 exactly 3.0 5 1.64 0.82 - 2.46 14 1.64 0.82 - 2.46 30.12 -
09:50 73 73 99 - 13.6 15.7 14 2.62 exactly 2.6 5 1.64 0.82 - 2.46 14 1.64 0.82 - 2.46 30.11 -0.01
10:50 73 74 99 - 13.6 15.7 15 2.62 exactly 2.6 5 1.64 0.82 - 2.46 15 1.64 0.82 - 2.46 30.10 -0.02
11:50 73 72 99 - 13.6 15.7 8 2.62 exactly 2.6 5 1.64 0.82 - 2.46 8 1.64 0.82 - 2.46 30.10 -0.02
12:50 73 71 99 - 13.6 15.7 14 2.95 exactly 3.0 4 1.64 0.82 - 2.46 14 1.64 0.82 - 2.46 30.09 -0.02
13:50 73 69 99 - 13.6 15.7 5 2.95 exactly 3.0 5 3.28 2.46 - 4.10 8 1.64 0.82 - 2.46 30.08 -0.02
14:50 73 69 100 - 11.7 13.4 4 3.28 exactly 3.3 4 3.28 2.46 - 4.10 14 1.64 0.82 - 2.46 30.06 -0.03
15:50 73 69 100 - 11.7 13.4 5 3.61 exactly 3.6 5 3.28 2.46 - 4.10 14 1.64 0.82 - 2.46 30.05 -0.04
16:50 74 69 98 - 11.7 13.4 5 3.28 exactly 3.3 5 3.28 2.46 - 4.10 8 1.64 0.82 - 2.46 30.03 -0.05
17:50 74 69 99 - 11.7 13.4 5 3.28 exactly 3.3 5 3.28 2.46 - 4.10 15 1.64 0.82 - 2.46 30.01 -0.05
18:50 73 69 100 - 11.7 13.4 5 3.28 exactly 3.3 5 3.28 2.46 - 4.10 8 1.64 0.82 - 2.46 30.03 -0.02
19:50 73 69 100 - 11.7 13.4 5 2.95 exactly 3.0 5 3.28 2.46 - 4.10 14 1.64 0.82 - 2.46 30.03 -
20:50 73 69 99 - 11.7 13.4 5 2.62 exactly 2.6 5 1.64 0.82 - 2.46 14 1.64 0.82 - 2.46 30.04 +0.02
21:50 73 69 99 - 13.6 15.7 14 2.62 exactly 2.6 4 1.64 0.82 - 2.46 14 1.64 0.82 - 2.46 30.06 +0.03
22:50 73 69 100 - 13.6 15.7 14 2.30 exactly 2.3 6 1.64 0.82 - 2.46 14 1.64 0.82 - 2.46 30.05 +0.02
23:50 72 68 100 - 11.7 13.4 13 2.30 exactly 2.3 5 1.64 0.82 - 2.46 13 1.64 0.82 - 2.46 30.05 +0.01
00:50 70 68 98 - 9.7 11.2 14 2.30 exactly 2.3 5 1.64 0.82 - 2.46 14 1.64 0.82 - 2.46 30.08 +0.02
01:50 69 67 100 - 5.8 6.7 13 2.30 exactly 2.3 4 1.64 0.82 - 2.46 13 1.64 0.82 - 2.46 30.07 +0.02
02:50 69 67 100 - 3.9 4.5 13 2.30 exactly 2.3 4 1.64 0.82 - 2.46 13 1.64 0.82 - 2.46 30.06 +0.01
03:50 69 67 100 - 3.9 4.5 13 2.30 exactly 2.3 4 1.64 0.82 - 2.46 13 1.64 0.82 - 2.46 30.06 -0.01

Detailed Wave Spectra

Time Water Depth Wave Height Spectral Peak Period Average Wave Period Sampling Interval Wave Record
20:00 102 ft 3.02 ft 14.8 sec 4.1 sec 0.6 sec 2400 sec
21:00 102 ft 2.92 ft 13.8 sec 4.0 sec 0.6 sec 2400 sec
22:00 102 ft 2.76 ft 9.1 sec 4.1 sec 0.6 sec 2400 sec
23:00 102 ft 2.69 ft 4.2 sec 4.1 sec 0.6 sec 2400 sec
00:00 102 ft 2.66 ft 13.8 sec 4.5 sec 0.6 sec 2400 sec
01:00 102 ft 2.66 ft 13.8 sec 4.5 sec 0.6 sec 2400 sec
02:00 102 ft 2.56 ft 13.8 sec 4.6 sec 0.6 sec 2400 sec
03:00 102 ft 2.69 ft 13.8 sec 5.0 sec 0.6 sec 2400 sec
04:00 102 ft 2.56 ft 13.8 sec 4.7 sec 0.6 sec 2400 sec
05:00 102 ft 2.62 ft 8.3 sec 4.9 sec 0.6 sec 2400 sec
06:00 102 ft 2.89 ft 13.8 sec 5.0 sec 0.6 sec 2400 sec
07:00 102 ft 2.66 ft 13.8 sec 4.7 sec 0.6 sec 2400 sec
08:00 102 ft 2.82 ft 13.8 sec 4.8 sec 0.6 sec 2400 sec
09:00 102 ft 2.82 ft 13.8 sec 4.7 sec 0.6 sec 2400 sec
10:00 102 ft 2.69 ft 13.8 sec 4.6 sec 0.6 sec 2400 sec
11:00 102 ft 2.53 ft 14.8 sec 4.3 sec 0.6 sec 2400 sec
12:00 102 ft 2.53 ft 8.3 sec 4.0 sec 0.6 sec 2400 sec
13:00 102 ft 2.79 ft 13.8 sec 4.2 sec 0.6 sec 2400 sec
14:00 102 ft 2.92 ft 5.3 sec 4.0 sec 0.6 sec 2400 sec
15:00 102 ft 3.38 ft 4.2 sec 4.2 sec 0.6 sec 2400 sec
16:00 102 ft 3.64 ft 5.3 sec 4.3 sec 0.6 sec 2400 sec
17:00 102 ft 3.31 ft 5.3 sec 4.2 sec 0.6 sec 2400 sec
18:00 102 ft 3.35 ft 5.0 sec 4.2 sec 0.6 sec 2400 sec
19:00 102 ft 3.25 ft 5.0 sec 4.3 sec 0.6 sec 2400 sec
20:00 102 ft 2.95 ft 5.3 sec 4.4 sec 0.6 sec 2400 sec
21:00 102 ft 2.72 ft 5.3 sec 4.2 sec 0.6 sec 2400 sec
22:00 102 ft 2.62 ft 13.8 sec 4.4 sec 0.6 sec 2400 sec
23:00 102 ft 2.46 ft 13.8 sec 4.5 sec 0.6 sec 2400 sec
00:00 102 ft 2.43 ft 12.9 sec 4.2 sec 0.6 sec 2400 sec
01:00 102 ft 2.36 ft 13.8 sec 4.2 sec 0.6 sec 2400 sec
02:00 102 ft 2.33 ft 12.9 sec 4.4 sec 0.6 sec 2400 sec
03:00 102 ft 2.30 ft 12.9 sec 4.6 sec 0.6 sec 2400 sec